| time (UTC) | temp F | wind direction | speed MPH | gust MPH | rain 1hr in | rain 24hr in | rain mn in | humidity % | barometer mb |
| 20260507064756 | 54 | 141 | 11.0 | 17.0 | 0.00 | 0.00 | 0.00 | 34 | 1021.4 |
| 20260507064255 | 54 | 147 | 13.0 | 19.0 | 0.00 | 0.00 | 0.00 | 34 | 1021.1 |
| 20260507063752 | 54 | 126 | 14.0 | 18.0 | 0.00 | 0.00 | 0.00 | 34 | 1021.2 |
| 20260507063249 | 54 | 130 | 12.0 | 19.0 | 0.00 | 0.00 | 0.00 | 34 | 1021.2 |
| 20260507062745 | 54 | 142 | 9.0 | 16.0 | 0.00 | 0.00 | 0.00 | 34 | 1021.3 |
| 20260507062243 | 54 | 163 | 5.0 | 17.0 | 0.00 | 0.00 | 0.00 | 34 | 1021.1 |
| 20260507061741 | 54 | 163 | 8.0 | 13.0 | 0.00 | 0.00 | 0.00 | 34 | 1021.2 |
| 20260507061238 | 54 | 143 | 11.0 | 21.0 | 0.00 | 0.00 | 0.00 | 34 | 1021.0 |
| 20260507060737 | 54 | 149 | 11.0 | 18.0 | 0.00 | 0.00 | 0.00 | 33 | 1021.1 |
| 20260507060233 | 54 | 142 | 15.0 | 16.0 | 0.00 | 0.00 | 0.00 | 34 | 1021.2 |
| 20260507055729 | 54 | 138 | 7.0 | 18.0 | 0.00 | 0.13 | 0.13 | 33 | 1021.2 |
| 20260507055225 | 54 | 131 | 12.0 | 16.0 | 0.00 | 0.13 | 0.13 | 33 | 1021.3 |
| 20260507054721 | 54 | 133 | 11.0 | 21.0 | 0.00 | 0.13 | 0.13 | 33 | 1021.1 |
| 20260507054218 | 54 | 147 | 13.0 | 19.0 | 0.00 | 0.13 | 0.13 | 33 | 1021.3 |
| 20260507053715 | 54 | 140 | 10.0 | 15.0 | 0.00 | 0.13 | 0.13 | 34 | 1021.1 |
| 20260507053213 | 54 | 151 | 8.0 | 16.0 | 0.00 | 0.13 | 0.13 | 33 | 1021.2 |
| 20260507052712 | 54 | 145 | 12.0 | 14.0 | 0.00 | 0.13 | 0.13 | 33 | 1021.2 |
| 20260507052207 | 54 | 156 | 12.0 | 16.0 | 0.00 | 0.13 | 0.13 | 32 | 1021.1 |
| 20260507051706 | 54 | 132 | 14.0 | 16.0 | 0.00 | 0.13 | 0.13 | 33 | 1021.0 |
| 20260507051202 | 54 | 157 | 10.0 | 15.0 | 0.00 | 0.13 | 0.13 | 32 | 1021.1 |
| 20260507050659 | 53 | 144 | 8.0 | 13.0 | 0.00 | 0.13 | 0.13 | 32 | 1021.1 |
| 20260507050156 | 54 | 162 | 7.0 | 10.0 | 0.00 | 0.13 | 0.13 | 33 | 1021.2 |
| 20260507045652 | 54 | 129 | 9.0 | 13.0 | 0.00 | 0.13 | 0.13 | 31 | 1021.2 |
| 20260507045149 | 55 | 147 | 6.0 | 13.0 | 0.00 | 0.13 | 0.13 | 31 | 1021.3 |
| 20260507044646 | 54 | 146 | 7.0 | 14.0 | 0.00 | 0.13 | 0.13 | 31 | 1021.3 |
| 20260507044143 | 54 | 141 | 10.0 | 14.0 | 0.00 | 0.13 | 0.13 | 31 | 1021.2 |
| 20260507043639 | 53 | 135 | 15.0 | 17.0 | 0.00 | 0.13 | 0.13 | 32 | 1021.2 |
| 20260507043136 | 53 | 130 | 11.0 | 12.0 | 0.00 | 0.13 | 0.13 | 33 | 1021.0 |
| 20260507042632 | 52 | 104 | 6.0 | 11.0 | 0.00 | 0.13 | 0.13 | 35 | 1021.0 |
| 20260507042127 | 51 | 132 | 7.0 | 10.0 | 0.00 | 0.13 | 0.13 | 36 | 1020.8 |
| 20260507041624 | 51 | 112 | 11.0 | 15.0 | 0.00 | 0.13 | 0.13 | 36 | 1021.1 |
| 20260507041121 | 51 | 126 | 15.0 | 15.0 | 0.00 | 0.13 | 0.13 | 36 | 1021.2 |
| 20260507040618 | 51 | 116 | 7.0 | 11.0 | 0.00 | 0.13 | 0.13 | 35 | 1021.2 |
| 20260507040114 | 52 | 133 | 10.0 | 12.0 | 0.00 | 0.13 | 0.13 | 36 | 1021.2 |
| 20260507035610 | 52 | 144 | 9.0 | 16.0 | 0.00 | 0.13 | 0.13 | 35 | 1021.3 |
| 20260507035106 | 52 | 128 | 11.0 | 16.0 | 0.00 | 0.13 | 0.13 | 36 | 1021.2 |
| 20260507034604 | 52 | 130 | 10.0 | 15.0 | 0.00 | 0.13 | 0.13 | 35 | 1021.1 |
| 20260507034102 | 53 | 141 | 9.0 | 15.0 | 0.00 | 0.13 | 0.13 | 35 | 1021.1 |
| 20260507033600 | 53 | 150 | 9.0 | 15.0 | 0.00 | 0.13 | 0.13 | 34 | 1021.1 |
| 20260507033056 | 53 | 135 | 10.0 | 13.0 | 0.00 | 0.13 | 0.13 | 33 | 1021.0 |
| 20260507032554 | 53 | 135 | 10.0 | 15.0 | 0.00 | 0.13 | 0.13 | 33 | 1021.0 |
| 20260507032050 | 53 | 125 | 15.0 | 17.0 | 0.00 | 0.13 | 0.13 | 33 | 1020.6 |
| 20260507031546 | 53 | 125 | 12.0 | 13.0 | 0.00 | 0.13 | 0.13 | 33 | 1020.7 |
| 20260507031043 | 61 | 136 | 8.0 | 9.0 | 0.00 | 0.13 | 0.13 | 26 | 1020.7 |
| 20260507030540 | 61 | 137 | 5.0 | 6.0 | 0.00 | 0.13 | 0.13 | 26 | 1020.7 |
| 20260507030038 | 61 | 135 | 6.0 | 7.0 | 0.00 | 0.13 | 0.13 | 26 | 1020.7 |
| 20260507025535 | 61 | 130 | 4.0 | 4.0 | 0.00 | 0.13 | 0.13 | 26 | 1020.7 |
| 20260507025032 | 61 | 187 | 2.0 | 4.0 | 0.00 | 0.13 | 0.13 | 26 | 1020.5 |
| 20260507024530 | 61 | 216 | 3.0 | 4.0 | 0.00 | 0.13 | 0.13 | 26 | 1020.4 |
| 20260507024026 | 61 | 211 | 4.0 | 5.0 | 0.00 | 0.13 | 0.13 | 26 | 1020.5 |
| 20260507023522 | 61 | 224 | 2.0 | 3.0 | 0.00 | 0.13 | 0.13 | 26 | 1020.5 |
| 20260507023020 | 61 | 255 | 3.0 | 6.0 | 0.00 | 0.13 | 0.13 | 26 | 1020.5 |
| 20260507022516 | 61 | 267 | 4.0 | 5.0 | 0.00 | 0.13 | 0.13 | 26 | 1020.5 |
| 20260507022012 | 61 | 285 | 5.0 | 6.0 | 0.00 | 0.13 | 0.13 | 26 | 1020.4 |
| 20260507021508 | 61 | 313 | 1.0 | 8.0 | 0.00 | 0.13 | 0.13 | 26 | 1020.3 |
| 20260507021005 | 63 | 309 | 2.0 | 7.0 | 0.00 | 0.13 | 0.13 | 24 | 1020.1 |
| 20260507020502 | 63 | 337 | 5.0 | 6.0 | 0.00 | 0.13 | 0.13 | 24 | 1020.1 |
| 20260507015959 | 63 | 353 | 8.0 | 9.0 | 0.00 | 0.13 | 0.13 | 24 | 1020.3 |
| 20260507015457 | 63 | 342 | 7.0 | 10.0 | 0.00 | 0.13 | 0.13 | 24 | 1020.4 |
| 20260507014954 | 63 | 357 | 9.0 | 11.0 | 0.00 | 0.13 | 0.13 | 23 | 1020.4 |
| 20260507014450 | 64 | 357 | 6.0 | 9.0 | 0.00 | 0.13 | 0.13 | 24 | 1020.7 |
| 20260507013946 | 64 | 337 | 5.0 | 9.0 | 0.00 | 0.13 | 0.13 | 23 | 1020.5 |
| 20260507013443 | 66 | 323 | 6.0 | 10.0 | 0.00 | 0.13 | 0.13 | 23 | 1020.5 |
| 20260507012941 | 66 | 335 | 6.0 | 12.0 | 0.00 | 0.13 | 0.13 | 23 | 1020.6 |
| 20260507012437 | 66 | 354 | 6.0 | 7.0 | 0.00 | 0.13 | 0.13 | 24 | 1020.6 |
| 20260507011934 | 66 | 6 | 9.0 | 11.0 | 0.00 | 0.13 | 0.13 | 24 | 1020.4 |
| 20260507011432 | 65 | 23 | 6.0 | 11.0 | 0.00 | 0.13 | 0.13 | 24 | 1020.6 |
| 20260507010931 | 65 | 0 | 4.0 | 12.0 | 0.00 | 0.13 | 0.13 | 24 | 1020.4 |
| 20260507010427 | 65 | 351 | 10.0 | 15.0 | 0.00 | 0.13 | 0.13 | 24 | 1020.4 |
| 20260507005924 | 65 | 355 | 8.0 | 11.0 | 0.00 | 0.13 | 0.13 | 24 | 1020.5 |
| 20260507005421 | 66 | 337 | 13.0 | 17.0 | 0.00 | 0.13 | 0.13 | 23 | 1020.5 |
| 20260507004917 | 65 | 345 | 9.0 | 15.0 | 0.00 | 0.13 | 0.13 | 23 | 1020.6 |
| 20260507004414 | 65 | 325 | 9.0 | 20.0 | 0.00 | 0.13 | 0.13 | 23 | 1020.7 |
| 20260507003912 | 66 | 340 | 9.0 | 9.0 | 0.00 | 0.13 | 0.13 | 22 | 1020.7 |
| 20260507003407 | 66 | 319 | 4.0 | 11.0 | 0.00 | 0.13 | 0.13 | 22 | 1020.5 |
| 20260507002902 | 66 | 354 | 9.0 | 13.0 | 0.00 | 0.13 | 0.13 | 23 | 1020.4 |
| 20260507002358 | 66 | 310 | 5.0 | 13.0 | 0.00 | 0.13 | 0.13 | 22 | 1020.5 |
| 20260507001856 | 66 | 330 | 9.0 | 14.0 | 0.00 | 0.13 | 0.13 | 22 | 1020.5 |
| 20260507001352 | 66 | 292 | 5.0 | 13.0 | 0.00 | 0.13 | 0.13 | 22 | 1020.6 |
| 20260507000849 | 65 | 7 | 5.0 | 13.0 | 0.00 | 0.13 | 0.13 | 24 | 1020.4 |
| 20260507000344 | 66 | 302 | 22.0 | 25.0 | 0.00 | 0.13 | 0.13 | 22 | 1020.5 |
| 20260506235841 | 66 | 34 | 9.0 | 16.0 | 0.00 | 0.13 | 0.13 | 23 | 1020.5 |
| 20260506235338 | 65 | 271 | 11.0 | 15.0 | 0.00 | 0.13 | 0.13 | 22 | 1020.4 |
| 20260506234834 | 66 | 3 | 3.0 | 18.0 | 0.00 | 0.13 | 0.13 | 22 | 1020.4 |
| 20260506234332 | 66 | 328 | 8.0 | 10.0 | 0.00 | 0.13 | 0.13 | 24 | 1020.4 |
| 20260506233830 | 66 | 310 | 7.0 | 13.0 | 0.00 | 0.13 | 0.13 | 25 | 1020.5 |
| 20260506233325 | 65 | 335 | 4.0 | 15.0 | 0.00 | 0.13 | 0.13 | 26 | 1020.4 |
| 20260506232822 | 65 | 287 | 16.0 | 21.0 | 0.00 | 0.13 | 0.13 | 25 | 1020.3 |
| 20260506232318 | 65 | 337 | 7.0 | 14.0 | 0.00 | 0.13 | 0.13 | 27 | 1020.3 |
| 20260506231815 | 64 | 306 | 9.0 | 25.0 | 0.00 | 0.13 | 0.13 | 25 | 1020.3 |
| 20260506231313 | 63 | 350 | 9.0 | 18.0 | 0.00 | 0.13 | 0.13 | 26 | 1020.5 |
| 20260506230810 | 63 | 345 | 10.0 | 21.0 | 0.00 | 0.13 | 0.13 | 26 | 1020.4 |
| 20260506230306 | 63 | 343 | 8.0 | 18.0 | 0.00 | 0.13 | 0.13 | 25 | 1020.6 |
| 20260506225803 | 63 | 327 | 5.0 | 22.0 | 0.00 | 0.13 | 0.13 | 25 | 1020.5 |
| 20260506225300 | 63 | 316 | 13.0 | 15.0 | 0.00 | 0.13 | 0.13 | 25 | 1020.4 |
| 20260506224756 | 62 | 309 | 10.0 | 20.0 | 0.00 | 0.13 | 0.13 | 26 | 1020.5 |
| 20260506224254 | 63 | 330 | 15.0 | 20.0 | 0.00 | 0.13 | 0.13 | 25 | 1020.3 |
| 20260506223750 | 63 | 332 | 12.0 | 19.0 | 0.00 | 0.13 | 0.13 | 25 | 1020.6 |
| 20260506223246 | 62 | 287 | 13.0 | 20.0 | 0.00 | 0.13 | 0.13 | 27 | 1020.5 |
| 20260506222743 | 63 | 8 | 13.0 | 30.0 | 0.00 | 0.13 | 0.13 | 25 | 1020.5 |
| 20260506222238 | 62 | 284 | 14.0 | 19.0 | 0.00 | 0.13 | 0.13 | 27 | 1020.6 |
| 20260506221736 | 61 | 282 | 10.0 | 19.0 | 0.00 | 0.13 | 0.13 | 26 | 1020.8 |
| 20260506221234 | 60 | 349 | 8.0 | 11.0 | 0.00 | 0.13 | 0.13 | 28 | 1020.7 |
| 20260506220731 | 60 | 306 | 16.0 | 22.0 | 0.00 | 0.13 | 0.13 | 26 | 1020.7 |
| 20260506220226 | 60 | 285 | 14.0 | 19.0 | 0.00 | 0.13 | 0.13 | 27 | 1020.8 |
| 20260506215723 | 61 | 325 | 12.0 | 26.0 | 0.00 | 0.13 | 0.13 | 26 | 1020.7 |
| 20260506215218 | 62 | 331 | 23.0 | 26.0 | 0.00 | 0.13 | 0.13 | 26 | 1020.8 |
| 20260506214715 | 62 | 310 | 15.0 | 28.0 | 0.00 | 0.13 | 0.13 | 25 | 1020.8 |
| 20260506214212 | 61 | 311 | 17.0 | 18.0 | 0.00 | 0.13 | 0.13 | 27 | 1021.0 |
| 20260506213710 | 61 | 312 | 17.0 | 28.0 | 0.00 | 0.13 | 0.13 | 26 | 1020.7 |
| 20260506213208 | 60 | 328 | 13.0 | 22.0 | 0.00 | 0.13 | 0.13 | 25 | 1021.0 |
| 20260506212705 | 61 | 316 | 16.0 | 25.0 | 0.00 | 0.13 | 0.13 | 25 | 1020.6 |
| 20260506212200 | 61 | 356 | 15.0 | 20.0 | 0.00 | 0.13 | 0.13 | 27 | 1021.0 |
| 20260506211656 | 61 | 329 | 11.0 | 22.0 | 0.00 | 0.13 | 0.13 | 29 | 1020.8 |
| 20260506211152 | 61 | 293 | 19.0 | 27.0 | 0.00 | 0.13 | 0.13 | 26 | 1020.6 |
| 20260506210649 | 60 | 278 | 13.0 | 18.0 | 0.00 | 0.13 | 0.13 | 26 | 1020.4 |
| 20260506210146 | 60 | 335 | 12.0 | 27.0 | 0.00 | 0.13 | 0.13 | 27 | 1020.6 |
| 20260506205643 | 61 | 277 | 17.0 | 18.0 | 0.00 | 0.13 | 0.13 | 29 | 1020.5 |
| 20260506205138 | 60 | 343 | 12.0 | 17.0 | 0.00 | 0.13 | 0.13 | 26 | 1020.7 |
| 20260506204636 | 60 | 306 | 22.0 | 28.0 | 0.00 | 0.13 | 0.13 | 28 | 1020.7 |
| 20260506204132 | 59 | 283 | 17.0 | 23.0 | 0.00 | 0.13 | 0.13 | 25 | 1020.7 |
| 20260506203631 | 60 | 282 | 11.0 | 22.0 | 0.00 | 0.13 | 0.13 | 26 | 1020.5 |
| 20260506203127 | 60 | 264 | 11.0 | 19.0 | 0.00 | 0.13 | 0.13 | 24 | 1020.7 |
| 20260506202626 | 60 | 343 | 10.0 | 25.0 | 0.00 | 0.13 | 0.13 | 28 | 1020.8 |
| 20260506202121 | 60 | 288 | 13.0 | 20.0 | 0.00 | 0.13 | 0.13 | 29 | 1020.6 |
| 20260506201619 | 59 | 343 | 14.0 | 21.0 | 0.00 | 0.13 | 0.13 | 25 | 1020.5 |
| 20260506201115 | 60 | 289 | 9.0 | 19.0 | 0.00 | 0.13 | 0.13 | 26 | 1020.4 |
| 20260506200611 | 59 | 300 | 16.0 | 34.0 | 0.00 | 0.13 | 0.13 | 24 | 1020.7 |
| 20260506200108 | 59 | 327 | 10.0 | 16.0 | 0.00 | 0.13 | 0.13 | 27 | 1020.7 |
| 20260506195605 | 58 | 311 | 8.0 | 27.0 | 0.00 | 0.13 | 0.13 | 27 | 1020.5 |
| 20260506195102 | 57 | 307 | 10.0 | 30.0 | 0.00 | 0.13 | 0.13 | 25 | 1020.7 |
| 20260506194559 | 58 | 315 | 19.0 | 24.0 | 0.00 | 0.13 | 0.13 | 23 | 1020.7 |
| 20260506194055 | 57 | 293 | 13.0 | 19.0 | 0.00 | 0.13 | 0.13 | 25 | 1020.7 |
| 20260506193553 | 57 | 284 | 25.0 | 28.0 | 0.00 | 0.13 | 0.13 | 25 | 1020.6 |
| 20260506193050 | 57 | 274 | 17.0 | 17.0 | 0.00 | 0.13 | 0.13 | 26 | 1020.7 |
| 20260506192547 | 56 | 333 | 20.0 | 24.0 | 0.00 | 0.13 | 0.13 | 27 | 1020.7 |
| 20260506192043 | 56 | 311 | 19.0 | 27.0 | 0.00 | 0.13 | 0.13 | 25 | 1020.6 |
| 20260506191539 | 56 | 312 | 20.0 | 26.0 | 0.00 | 0.13 | 0.13 | 27 | 1020.5 |
| 20260506191035 | 56 | 297 | 20.0 | 23.0 | 0.00 | 0.13 | 0.13 | 24 | 1020.4 |
| 20260506190533 | 56 | 282 | 16.0 | 26.0 | 0.00 | 0.13 | 0.13 | 25 | 1020.6 |
| 20260506190030 | 56 | 343 | 9.0 | 20.0 | 0.00 | 0.13 | 0.13 | 26 | 1020.5 |
| 20260506185527 | 56 | 327 | 18.0 | 31.0 | 0.00 | 0.13 | 0.13 | 24 | 1020.4 |
| 20260506185023 | 56 | 330 | 14.0 | 17.0 | 0.00 | 0.13 | 0.13 | 26 | 1020.4 |
| 20260506184521 | 56 | 335 | 20.0 | 25.0 | 0.00 | 0.13 | 0.13 | 25 | 1020.5 |
| 20260506184018 | 55 | 294 | 8.0 | 21.0 | 0.00 | 0.13 | 0.13 | 28 | 1020.3 |
| 20260506183513 | 55 | 340 | 16.0 | 36.0 | 0.00 | 0.13 | 0.13 | 28 | 1020.5 |
| 20260506183010 | 55 | 304 | 17.0 | 27.0 | 0.00 | 0.13 | 0.13 | 26 | 1020.7 |
| 20260506182508 | 55 | 332 | 12.0 | 22.0 | 0.00 | 0.13 | 0.13 | 28 | 1020.7 |
| 20260506182005 | 55 | 313 | 8.0 | 21.0 | 0.00 | 0.13 | 0.13 | 28 | 1020.6 |
| 20260506181503 | 56 | 314 | 15.0 | 27.0 | 0.00 | 0.13 | 0.13 | 27 | 1020.4 |
| 20260506180959 | 55 | 311 | 11.0 | 18.0 | 0.00 | 0.13 | 0.13 | 29 | 1020.5 |
| 20260506180456 | 55 | 326 | 13.0 | 25.0 | 0.00 | 0.13 | 0.13 | 30 | 1020.6 |
| 20260506175953 | 55 | 323 | 26.0 | 27.0 | 0.00 | 0.13 | 0.13 | 30 | 1020.6 |
| 20260506175449 | 54 | 324 | 10.0 | 15.0 | 0.00 | 0.13 | 0.13 | 30 | 1020.3 |
| 20260506174946 | 54 | 324 | 10.0 | 15.0 | 0.00 | 0.13 | 0.13 | 31 | 1020.3 |
| 20260506174444 | 54 | 324 | 10.0 | 15.0 | 0.00 | 0.13 | 0.13 | 30 | 1020.4 |
| 20260506173940 | 54 | 324 | 10.0 | 15.0 | 0.00 | 0.13 | 0.13 | 33 | 1020.4 |
| 20260506173438 | 54 | 324 | 10.0 | 15.0 | 0.00 | 0.13 | 0.13 | 31 | 1020.1 |
| 20260506172934 | 54 | 324 | 10.0 | 15.0 | 0.00 | 0.13 | 0.13 | 33 | 1020.1 |
| 20260506172432 | 53 | 324 | 10.0 | 15.0 | 0.00 | 0.13 | 0.13 | 30 | 1020.1 |
| 20260506171928 | 54 | 324 | 10.0 | 15.0 | 0.00 | 0.13 | 0.13 | 32 | 1019.9 |
| 20260506171426 | 53 | 324 | 10.0 | 15.0 | 0.00 | 0.13 | 0.13 | 32 | 1020.0 |
| 20260506170924 | 53 | 324 | 10.0 | 15.0 | 0.00 | 0.13 | 0.13 | 33 | 1019.9 |
| 20260506170419 | 53 | 324 | 10.0 | 15.0 | 0.00 | 0.13 | 0.13 | 35 | 1019.8 |
| 20260506165919 | 53 | 324 | 10.0 | 15.0 | 0.00 | 0.13 | 0.13 | 33 | 1019.8 |
| 20260506165416 | 53 | 324 | 10.0 | 15.0 | 0.00 | 0.13 | 0.13 | 31 | 1019.7 |
| 20260506164912 | 52 | 324 | 10.0 | 15.0 | 0.00 | 0.13 | 0.13 | 34 | 1019.3 |
| 20260506164408 | 52 | 324 | 10.0 | 15.0 | 0.00 | 0.13 | 0.13 | 38 | 1019.7 |
| 20260506163902 | 52 | 324 | 10.0 | 15.0 | 0.00 | 0.13 | 0.13 | 38 | 1019.5 |
| 20260506163355 | 53 | 324 | 10.0 | 15.0 | 0.00 | 0.13 | 0.13 | 36 | 1019.2 |
| 20260506162850 | 52 | 324 | 10.0 | 15.0 | 0.00 | 0.13 | 0.13 | 37 | 1019.3 |
| 20260506162349 | 51 | 324 | 10.0 | 15.0 | 0.00 | 0.13 | 0.13 | 37 | 1019.1 |
| 20260506161846 | 51 | 324 | 10.0 | 15.0 | 0.00 | 0.13 | 0.13 | 40 | 1019.0 |
| 20260506161343 | 51 | 324 | 10.0 | 15.0 | 0.00 | 0.13 | 0.13 | 38 | 1019.0 |
| 20260506160841 | 51 | 324 | 10.0 | 15.0 | 0.00 | 0.13 | 0.13 | 38 | 1019.1 |
| 20260506160337 | 51 | 324 | 10.0 | 15.0 | 0.00 | 0.13 | 0.13 | 38 | 1019.2 |
| 20260506155836 | 51 | 324 | 10.0 | 15.0 | 0.00 | 0.13 | 0.13 | 39 | 1019.1 |
| 20260506155332 | 51 | 324 | 10.0 | 15.0 | 0.00 | 0.13 | 0.13 | 40 | 1018.9 |
| 20260506153444 | 50 | 324 | 10.0 | 15.0 | 0.00 | 0.13 | 0.13 | 43 | 1018.8 |
| 20260506152942 | 50 | 324 | 10.0 | 15.0 | 0.00 | 0.13 | 0.13 | 43 | 1018.6 |
| 20260506152439 | 49 | 324 | 10.0 | 15.0 | 0.00 | 0.13 | 0.13 | 43 | 1018.9 |
| 20260506151937 | 48 | 324 | 10.0 | 15.0 | 0.00 | 0.13 | 0.13 | 44 | 1018.6 |
| 20260506151434 | 48 | 324 | 10.0 | 21.0 | 0.00 | 0.13 | 0.13 | 45 | 1018.6 |
| 20260506150932 | 48 | 7 | 13.0 | 19.0 | 0.00 | 0.13 | 0.13 | 48 | 1018.3 |
| 20260506150427 | 47 | 338 | 13.0 | 24.0 | 0.00 | 0.13 | 0.13 | 45 | 1018.4 |
| 20260506145925 | 47 | 333 | 14.0 | 23.0 | 0.00 | 0.13 | 0.13 | 52 | 1018.3 |
| 20260506145421 | 47 | 2 | 9.0 | 21.0 | 0.02 | 0.13 | 0.13 | 52 | 1018.3 |
| 20260506144919 | 46 | 313 | 14.0 | 24.0 | 0.00 | 0.13 | 0.13 | 55 | 1018.4 |
| 20260506144415 | 46 | 307 | 7.0 | 14.0 | 0.00 | 0.13 | 0.13 | 55 | 1018.2 |
| 20260506143914 | 45 | 9 | 9.0 | 13.0 | 0.00 | 0.13 | 0.13 | 58 | 1018.2 |
| 20260506143410 | 44 | 3 | 13.0 | 14.0 | 0.00 | 0.13 | 0.13 | 62 | 1017.9 |
| 20260506142908 | 44 | 0 | 9.0 | 13.0 | 0.00 | 0.13 | 0.13 | 63 | 1018.1 |
| 20260506142406 | 43 | 347 | 4.0 | 10.0 | 0.00 | 0.13 | 0.13 | 64 | 1017.9 |
| 20260506141904 | 42 | 7 | 5.0 | 10.0 | 0.00 | 0.13 | 0.13 | 67 | 1017.9 |
| 20260506141402 | 41 | 347 | 4.0 | 4.0 | 0.00 | 0.13 | 0.13 | 73 | 1018.2 |
| 20260506140900 | 41 | 295 | 6.0 | 13.0 | 0.00 | 0.13 | 0.13 | 75 | 1018.1 |
| 20260506140356 | 40 | 258 | 5.0 | 5.0 | 0.00 | 0.13 | 0.13 | 81 | 1017.9 |
| 20260506135853 | 40 | 209 | 2.0 | 4.0 | 0.00 | 0.13 | 0.13 | 83 | 1018.1 |
| 20260506135350 | 39 | 91 | 3.0 | 3.0 | 0.00 | 0.13 | 0.13 | 83 | 1017.8 |
| 20260506134846 | 39 | 258 | 0.0 | 3.0 | 0.00 | 0.13 | 0.13 | 84 | 1018.1 |
| 20260506134343 | 39 | 126 | 3.0 | 4.0 | 0.00 | 0.13 | 0.13 | 83 | 1017.8 |
| 20260506133840 | 39 | 150 | 1.0 | 2.0 | 0.00 | 0.13 | 0.13 | 83 | 1017.6 |
| 20260506133336 | 39 | 204 | 3.0 | 4.0 | 0.00 | 0.13 | 0.13 | 82 | 1017.8 |
| 20260506132833 | 39 | 229 | 2.0 | 4.0 | 0.00 | 0.13 | 0.13 | 81 | 1017.7 |
| 20260506132330 | 39 | 275 | 2.0 | 5.0 | 0.00 | 0.13 | 0.13 | 82 | 1017.6 |
| 20260506131828 | 39 | 245 | 2.0 | 5.0 | 0.00 | 0.13 | 0.13 | 82 | 1017.6 |
| 20260506131324 | 39 | 229 | 6.0 | 7.0 | 0.00 | 0.13 | 0.13 | 84 | 1017.3 |
| 20260506130822 | 39 | 169 | 3.0 | 4.0 | 0.00 | 0.13 | 0.13 | 84 | 1017.3 |
| 20260506130318 | 38 | 135 | 7.0 | 8.0 | 0.00 | 0.13 | 0.13 | 85 | 1017.4 |
| 20260506125816 | 39 | 132 | 4.0 | 5.0 | 0.00 | 0.13 | 0.13 | 85 | 1017.0 |
| 20260506125314 | 39 | 142 | 2.0 | 3.0 | 0.00 | 0.13 | 0.13 | 85 | 1017.0 |
| 20260506124813 | 39 | 186 | 3.0 | 5.0 | 0.00 | 0.13 | 0.13 | 85 | 1017.1 |
| 20260506124309 | 39 | 173 | 2.0 | 4.0 | 0.00 | 0.13 | 0.13 | 85 | 1016.9 |
| 20260506123807 | 39 | 222 | 6.0 | 7.0 | 0.00 | 0.13 | 0.13 | 85 | 1016.8 |
| 20260506123305 | 39 | 151 | 2.0 | 4.0 | 0.00 | 0.13 | 0.13 | 84 | 1016.7 |
| 20260506122801 | 39 | 213 | 3.0 | 5.0 | 0.00 | 0.13 | 0.13 | 84 | 1016.8 |
| 20260506122259 | 39 | 173 | 1.0 | 3.0 | 0.00 | 0.13 | 0.13 | 83 | 1016.8 |
| 20260506121757 | 39 | 218 | 4.0 | 5.0 | 0.00 | 0.13 | 0.13 | 84 | 1016.8 |
| 20260506121253 | 40 | 143 | 2.0 | 4.0 | 0.00 | 0.13 | 0.13 | 84 | 1016.6 |
| 20260506120751 | 40 | 209 | 3.0 | 5.0 | 0.00 | 0.13 | 0.13 | 83 | 1016.8 |
| 20260506120248 | 40 | 190 | 5.0 | 10.0 | 0.00 | 0.13 | 0.13 | 84 | 1016.4 |
| 20260506115746 | 41 | 227 | 6.0 | 10.0 | 0.00 | 0.13 | 0.13 | 84 | 1016.6 |
| 20260506115244 | 41 | 196 | 2.0 | 9.0 | 0.00 | 0.13 | 0.13 | 85 | 1016.2 |
| 20260506114741 | 41 | 250 | 11.0 | 14.0 | 0.00 | 0.13 | 0.13 | 85 | 1016.4 |
| 20260506114239 | 42 | 220 | 2.0 | 7.0 | 0.00 | 0.13 | 0.13 | 88 | 1016.4 |
| 20260506113737 | 42 | 159 | 4.0 | 7.0 | 0.00 | 0.13 | 0.13 | 89 | 1016.1 |
| 20260506113234 | 42 | 160 | 4.0 | 6.0 | 0.00 | 0.13 | 0.13 | 89 | 1016.2 |
| 20260506112730 | 41 | 163 | 2.0 | 4.0 | 0.00 | 0.13 | 0.13 | 89 | 1016.2 |
| 20260506112228 | 41 | 119 | 3.0 | 4.0 | 0.00 | 0.13 | 0.13 | 89 | 1016.3 |
| 20260506111725 | 41 | 102 | 4.0 | 5.0 | 0.00 | 0.13 | 0.13 | 88 | 1016.2 |
| 20260506111224 | 41 | 268 | 3.0 | 4.0 | 0.00 | 0.13 | 0.13 | 89 | 1016.1 |
| 20260506110721 | 41 | 208 | 2.0 | 5.0 | 0.00 | 0.13 | 0.13 | 89 | 1015.9 |
| 20260506110218 | 41 | 193 | 1.0 | 6.0 | 0.00 | 0.13 | 0.13 | 89 | 1016.1 |
| 20260506105714 | 41 | 204 | 5.0 | 11.0 | 0.00 | 0.13 | 0.13 | 89 | 1015.6 |
| 20260506105211 | 41 | 79 | 1.0 | 3.0 | 0.00 | 0.13 | 0.13 | 89 | 1016.1 |
| 20260506104710 | 41 | 201 | 4.0 | 5.0 | 0.00 | 0.13 | 0.13 | 89 | 1015.9 |
| 20260506104207 | 41 | 185 | 4.0 | 6.0 | 0.00 | 0.13 | 0.13 | 89 | 1015.7 |
| 20260506103703 | 41 | 201 | 2.0 | 5.0 | 0.00 | 0.13 | 0.13 | 90 | 1015.4 |
| 20260506103200 | 42 | 194 | 4.0 | 7.0 | 0.00 | 0.13 | 0.13 | 90 | 1015.9 |
| 20260506102659 | 42 | 222 | 7.0 | 8.0 | 0.00 | 0.13 | 0.13 | 90 | 1015.6 |
| 20260506102156 | 42 | 229 | 3.0 | 6.0 | 0.00 | 0.13 | 0.13 | 90 | 1015.6 |
| 20260506101652 | 42 | 213 | 8.0 | 9.0 | 0.00 | 0.13 | 0.13 | 90 | 1015.6 |
| 20260506101149 | 42 | 206 | 4.0 | 9.0 | 0.00 | 0.13 | 0.13 | 90 | 1015.4 |
| 20260506100648 | 42 | 261 | 3.0 | 9.0 | 0.00 | 0.13 | 0.13 | 90 | 1015.3 |
| 20260506100145 | 43 | 237 | 9.0 | 11.0 | 0.00 | 0.13 | 0.13 | 90 | 1015.1 |
| 20260506095644 | 43 | 241 | 4.0 | 11.0 | 0.00 | 0.13 | 0.13 | 90 | 1014.9 |
| 20260506095140 | 44 | 248 | 8.0 | 12.0 | 0.00 | 0.13 | 0.13 | 90 | 1014.7 |
| 20260506094637 | 44 | 242 | 7.0 | 11.0 | 0.00 | 0.13 | 0.13 | 90 | 1014.8 |
| 20260506094135 | 44 | 265 | 5.0 | 8.0 | 0.00 | 0.13 | 0.13 | 89 | 1014.8 |
| 20260506093634 | 44 | 315 | 9.0 | 10.0 | 0.00 | 0.13 | 0.13 | 89 | 1014.5 |
| 20260506093130 | 44 | 349 | 2.0 | 9.0 | 0.00 | 0.13 | 0.13 | 88 | 1014.6 |
| 20260506092628 | 45 | 241 | 10.0 | 13.0 | 0.02 | 0.13 | 0.13 | 87 | 1014.4 |
| 20260506092125 | 45 | 218 | 5.0 | 11.0 | 0.05 | 0.13 | 0.13 | 86 | 1013.9 |
| 20260506091623 | 45 | 207 | 6.0 | 6.0 | 0.09 | 0.12 | 0.12 | 86 | 1014.1 |
| 20260506091120 | 45 | 189 | 5.0 | 6.0 | 0.26 | 0.12 | 0.12 | 86 | 1014.1 |
| 20260506090618 | 45 | 111 | 1.0 | 5.0 | 0.40 | 0.11 | 0.11 | 84 | 1014.5 |
| 20260506090114 | 46 | 32 | 11.0 | 21.0 | 0.21 | 0.07 | 0.07 | 83 | 1014.7 |
| 20260506085611 | 47 | 344 | 11.0 | 19.0 | 0.17 | 0.04 | 0.04 | 83 | 1014.5 |
| 20260506085108 | 48 | 290 | 12.0 | 14.0 | 0.19 | 0.03 | 0.03 | 79 | 1014.0 |
| 20260506084604 | 48 | 61 | 1.0 | 2.0 | 0.05 | 0.01 | 0.01 | 72 | 1013.6 |
| 20260506084101 | 49 | 0 | 2.0 | 2.0 | 0.00 | 0.00 | 0.00 | 70 | 1013.6 |
| 20260506083558 | 49 | 180 | 2.0 | 3.0 | 0.00 | 0.00 | 0.00 | 70 | 1013.1 |
| 20260506083055 | 49 | 121 | 10.0 | 10.0 | 0.00 | 0.00 | 0.00 | 70 | 1012.6 |
| 20260506082552 | 48 | 129 | 7.0 | 10.0 | 0.00 | 0.00 | 0.00 | 71 | 1012.6 |
| 20260506082048 | 48 | 146 | 9.0 | 10.0 | 0.00 | 0.00 | 0.00 | 71 | 1012.5 |
| 20260506081546 | 48 | 133 | 11.0 | 16.0 | 0.00 | 0.00 | 0.00 | 72 | 1012.5 |
| 20260506081043 | 48 | 124 | 9.0 | 14.0 | 0.00 | 0.00 | 0.00 | 71 | 1012.6 |
| 20260506080541 | 48 | 117 | 9.0 | 12.0 | 0.00 | 0.00 | 0.00 | 72 | 1012.7 |
| 20260506073524 | 50 | 110 | 0.0 | 1.0 | 0.00 | 0.00 | 0.00 | 69 | 1013.1 |
| 20260506073021 | 50 | 312 | 1.0 | 2.0 | 0.00 | 0.00 | 0.00 | 67 | 1013.2 |
| 20260506072518 | 50 | 306 | 3.0 | 4.0 | 0.00 | 0.00 | 0.00 | 67 | 1013.1 |
| 20260506072016 | 50 | 259 | 3.0 | 8.0 | 0.00 | 0.00 | 0.00 | 66 | 1013.2 |
| 20260506071514 | 51 | 356 | 3.0 | 6.0 | 0.00 | 0.00 | 0.00 | 63 | 1013.2 |
| 20260506071011 | 51 | 305 | 2.0 | 3.0 | 0.00 | 0.00 | 0.00 | 62 | 1013.1 |
| 20260506070508 | 51 | 198 | 1.0 | 3.0 | 0.00 | 0.00 | 0.00 | 62 | 1013.1 |